Torna al catalogo

METEOR 2-17 DEB

AttivoPO
NORAD 38283·DEBRIS·🇷🇺 Russia

Lanciato Jan 30, 1988 da Plesetsk Cosmodrome

Loading…

Prossimi Passaggi (prossime 24 ore)

TLE

In scadenzaSource: Space-Track

Epoca: Sep 4, 2026, 14:33 UTC

1 38283U 88005AL  26247.60671415  .00000859  00000-0  55458-3 0  9998
2 38283  82.5514 205.7206 0020037  28.9830 331.2448 14.01780589114874

Traccia METEOR 2-17 DEB in tempo reale con AllMySat

Download on the App Store